Regional Weather Roundup
Issued by NWS Charleston, WV

Home | Current Version | Previous Version | Graphics & Text | Print | Product List | Glossary On
Versions: 1 2 3 4 5 6 7 8 9 10 11 12 13 14 15 16 17 18 19 20 21 22 23 24 25 26 27 28 29 30 31 32 33 34 35 36 37 38 39 40 41 42 43 44 45 46 47 48 49 50
000
ASUS41 KRLX 301310
RWRRLX
West Virginia Regional Weather Roundup
National Weather Service Charleston WV
900 AM EDT SUN AUG 30 2015

Note: "fair" indicates few or no clouds below 12,000 feet with no
significant weather and/or obstructions to visibility.

WVZ003-301400-
Northern Panhandle of West Virginia

CITY           SKY/WX    TMP DP  RH WIND       PRES   REMARKS
WHEELING       MOSUNNY   69  65  86 S7        30.14S
$$

WVZ009-301400-
Northwest West Virginia

CITY           SKY/WX    TMP DP  RH WIND       PRES   REMARKS
PARKERSBURG    SUNNY     70  65  84 CALM      30.17R
$$

WVZ006-301400-
Western West Virginia

CITY           SKY/WX    TMP DP  RH WIND       PRES   REMARKS
HUNTINGTON     PTSUNNY   70  65  84 SW6       30.16R
$$

WVZ015-301400-
West Central West Virginia

CITY           SKY/WX    TMP DP  RH WIND       PRES   REMARKS
CHARLESTON     PTSUNNY   66  64  93 CALM      30.17R
$$

WVZ022-031-301400-
North Central West Virginia

CITY           SKY/WX    TMP DP  RH WIND       PRES   REMARKS
CLARKSBURG     PTSUNNY   68  62  81 E3        30.17S
MORGANTOWN     PTSUNNY   71  61  70 S6        30.17F
$$

WVZ025-035-042-045-301400-
Southern West Virginia

CITY           SKY/WX    TMP DP  RH WIND       PRES   REMARKS
BECKLEY        CLOUDY    67  60  78 CALM      30.25R
LOGAN            N/A     66  64  94 CALM      30.20S
BLUEFIELD      CLOUDY    70  60  70 CALM      30.27R
LEWISBURG      CLOUDY    63  61  94 CALM      30.25R
$$

WVZ047-301400-
Northern Mountains of West Virginia

CITY           SKY/WX    TMP DP  RH WIND       PRES   REMARKS
ELKINS         CLOUDY    59  57  93 CALM      30.23S
$$

WVZ052-301400-
Eastern Panhandle of West Virginia

CITY           SKY/WX    TMP DP  RH WIND       PRES   REMARKS
MARTINSBURG    MOSUNNY   70  64  81 CALM      30.14S
PETERSBURG     PTSUNNY   64  61  90 CALM      30.18R
$$



USA.gov is the U.S. government's official web portal to all federal, state and local government web resources and services.